Regional Weather Roundup
Issued by NWS New Orleans/Baton Rouge, LA

Home | Current Version | Previous Version | Text Only | Print | Product List | Glossary On
Versions: 1 2 3 4 5 6 7 8 9 10 11 12 13 14 15 16 17 18 19 20 21 22 23 24 25 26 27
000
ASUS44 KLIX 210413
RWRLIX
NEW ORLEANS REGIONAL WEATHER ROUNDUP
NATIONAL WEATHER SERVICE NEW ORLEANS LA
1000 PM CST SAT JAN 20 2018

NOTE: "FAIR" INDICATES FEW OR NO CLOUDS BELOW 12,000 FEET WITH NO
      SIGNIFICANT WEATHER AND/OR OBSTRUCTIONS TO VISIBILITY.
      SKY/WX - SKY CONDITION AND SIGNIFICANT WEATHER.
      TMP - AIR TEMPERATURE.     DP    - DEWPOINT TEMPERATURE.
      RH  - RELATIVE HUMIDITY.   PRES  - PRESSURE.
      HI  - HEAT INDEX.          WCI   - WIND CHILL INDEX.

*  THESE STATIONS ARE NOT NWS OR FAA STATIONS AND ARE NOT UNDER
   NWS QUALITY CONTROL.

LAZ038-040-048-061>063-065>067-069-210500-
SOUTHEAST LOUISIANA

CITY           SKY/WX    TMP DP  RH WIND       PRES   REMARKS
N.O. INTL ARPT FAIR      57  51  80 SE12      30.20F
N.O. LAKEFRONT FAIR      53  49  86 SE8       30.21F
N.O. DOWNTOWN* FAIR      57  49  74 VRB5      30.21F
RESERVE*       FAIR      54  48  82 E6        30.19F
SLIDELL        FAIR      58  50  75 SE9       30.21F
BATON ROUGE    MOCLDY    53  48  83 E7        30.18F
BOOTHVILLE     FAIR      57  52  83 E6        30.22F
BELLE CHASSE   FAIR      56  52  86 SE9       30.20F
BOGALUSA*      FAIR      48  43  83 CALM      30.22S
GALLIANO*      FAIR      55  51  87 E6        30.20S
NEW ROADS*     FAIR      54  49  85 SE6       30.18S
GONZALES*      FAIR      49  47  96 CALM      30.18S
HAMMOND*       FAIR      54  46  76 S6        30.20F
HOUMA*         FAIR      55  53  94 SE7       30.19S
PORT FOURCHON* CLEAR     61  59  94 SE8       30.19F

$$

MSZ070-080>082-210500-
SOUTHERN MISSISSIPPI

CITY           SKY/WX    TMP DP  RH WIND       PRES   REMARKS
MCCOMB         FAIR      52  45  77 S6        30.20S
GULFPORT       FAIR      55  51  86 SE7       30.23R
BILOXI         FAIR      57  50  76 SE7       30.23R
PASCAGOULA     FAIR      50  45  83 SE3       30.24S

$$

COASTAL OBSERVATIONS
LAKE AND NEARSHORE STATIONS

STATION/POSITION TIME  SKY/WX   TEMP    WIND        PRES    WAVE
                                AIR SEA DIR/SP/G            HT/PER
                 (UTC)          (F)     (DEG/KT/KT) (MB)    (FT/S)
PASCAGOULA       0342            54     120/ 11/ 12 1023.4
WAVELAND YACHT   0342            55 46  130/  5/  7 1023.4
GRAND ISLE       0342            58 55  130/  3/  5 1022.6
SOUTHWEST PASS   0342            63 49  140/ 17/ 19 1023.2
NEW CANAL        0342            53 46  140/  2/  4 1022.6
SHELL BEACH      0342            54 50  120/  9/ 10 1023.1

OFFSHORE STATIONS

STATION/POSITION TIME  SKY/WX   TEMP    WIND        PRES    WAVE
                                AIR SEA DIR/SP/G            HT/PER
                 (UTC)          (F)     (DEG/KT/KT) (MB)    (FT/S)
64 S DAUPHIN ISL 0350            63 61  120/ 14/ 16 1023.7    3/ 5

$$





USA.gov is the U.S. government's official web portal to all federal, state and local government web resources and services.